DRAGON CRS-18 (44446 NORAD) Tracking and Keplerian Element Data

This shows tracking and keplerian element data for the satellite.

Feedback or suggestion? Click here.




ElementValue
Catalog44446
NameDRAGON CRS-18
Epoch Orbit336
Epoch Day228.5490738
Epoch Year2019
RAAN61.791
Inclination51.644
Eccentricity0.0007449
Argument of Perigee294.5546
Mean Anonmoly117.0519
Mean Motion15.50387239
Decay Rate5.702E-05
L11 44446U 19044A 19228.54907380 .00005702 00000-0 10635-3 0 9990
L22 44446 51.6440 61.7910 0007449 294.5546 117.0519 15.50387239 3366

Live tracking and technical data element details for DRAGON CRS-18 (NORAD 44446). DRAGON CRS-18 can be tracked NOW for your location showing map with azimuth and elevation plus other details from your city location.

Track the satellite on the map from your city or location and see movement details for azimuth, elevation, latitude, longitude, range, height, and movement on the map or in text.







IsCatalogInMostPopularTable: catalog: 44446, numindb: 9
Update: records affected: 1



GetName: 44446 DRAGON CRS-18

Hit Count: updated at: Wed, 21 Aug 2019 12:03:33 GMT